Regional Weather Roundup
Issued by NWS

Home | Current Version | Previous Version | Text Only | Print | Product List | Glossary On
Versions: 1 2 3 4 5 6 7 8 9 10 11 12 13 14 15 16 17 18 19 20 21 22 23 24 25 26 27 28 29 30 31 32 33 34 35 36 37 38 39 40 41 42 43 44 45 46 47 48 49 50
000
ASUS45 KREV 261510
RWRNV
NEVADA REGIONAL WEATHER ROUNDUP
NATIONAL WEATHER SERVICE RENO NV
700 AM PST FRI DEC 26 2014

NOTE: "FAIR" INDICATES FEW OR NO CLOUDS BELOW 12,000 FEET WITH NO
SIGNIFICANT WEATHER AND/OR OBSTRUCTIONS TO VISIBILITY.

NVZ001-003-004-261600-
WESTERN NEVADA

CITY           SKY/WX    TMP DP  RH WIND       PRES   REMARKS
RENO           PTCLDY    26  15  63 CALM      30.20R
CARSON CITY    CLOUDY    27  18  69 CALM      30.19R
MINDEN         CLOUDY    21  18  86 CALM      30.20
PYRAMID LAKE     N/A     32 N/A N/A NW2         N/A
FALLON         MOCLDY    13   9  84 S6        30.20R
LOVELOCK       MOCLDY    26  16  65 E7        30.17R
HAWTHORNE      CLOUDY    30  19  64 CALM      30.18R
$$

NVZ002-CAZ072-073-261600-
NORTHERN AND CENTRAL SIERRA

CITY           SKY/WX    TMP DP  RH WIND       PRES   REMARKS
S. LAKE TAHOE  PTCLDY    24   8  50 VRB5G17   30.08R
TRUCKEE        PTCLDY    10   7  85 SE5       30.13R
SQUAW VLY 8000   N/A     12  12 100 VRB6        N/A
BLUE CANYON    CLEAR     28   6  39 VRB7G24   30.04F
MAMMOTH LAKES  FAIR      14   7  73 W7        30.07S
BRIDGEPORT     FAIR      14   5  67 CALM      30.07R
$$

NVZ030-031-036-261600-
NORTHERN NEVADA

CITY           SKY/WX    TMP DP  RH WIND       PRES   REMARKS
ELKO           CLOUDY    24  16  71 W5        30.06S
WINNEMUCCA     CLOUDY    26  20  77 NW3       30.15R
WENDOVER       CLEAR     27  10  50 NW24      30.02R
$$

NVZ035-037-261600-
CENTRAL NEVADA

CITY           SKY/WX    TMP DP  RH WIND       PRES   REMARKS
ELY            MOCLDY    15   9  76 NW9       29.98R
EUREKA           N/A     21  14  74 NW8       30.06R
$$

NVZ013-014-261600-
SOUTH CENTRAL NEVADA

CITY           SKY/WX    TMP DP  RH WIND       PRES   REMARKS
TONOPAH        CLEAR     21   9  59 VRB7      30.07R
$$

NVZ017-020-022-261600-
SOUTHERN NEVADA

CITY           SKY/WX    TMP DP  RH WIND       PRES   REMARKS
LAS VEGAS      PTCLDY    42  10  27 NW17G26   30.00R
N. LAS VEGAS   CLEAR     40  10  29 N21       30.02R
NELLIS AFB     CLEAR     37  15  41 E6        30.06R
HENDERSON      CLEAR     37  11  34 VRB6      30.05R
MERCURY        CLEAR     33  11  39 NE15      30.07
$$


USA.gov is the U.S. government's official web portal to all federal, state and local government web resources and services.